Weather Roundup
Issued by NWS

Home | Current Version | Previous Version | Text Only | Print | Product List | Glossary On
Versions: 1 2 3 4 5 6 7 8 9 10 11 12 13 14 15 16 17 18 19 20 21 22 23 24 25 26 27 28 29 30 31 32 33 34 35 36 37 38 39 40 41 42 43 44 45 46 47 48 49 50
000
NZUS93 KARX 210310
HRRWXR

CURRENT HOURLY OBSERVATIONS ACROSS
MUCH OF THE UPPER MISSISSIPPI VALLEY
NATIONAL WEATHER SERVICE LA CROSSE WI
1000 PM CDT WED AUG 20 2014


...SOUTHEAST MINNESOTA...


CITY           SKY/WX    TMP DP  RH WIND       PRES   REMARKS
ROCHESTER      PTCLDY    70  67  90 S6        29.90S
ROCHESTER/MAYO FAIR      73  66  78 E8        29.90R
WINONA         CLEAR     73  68  83 CALM      29.90R
AUSTIN         PTCLDY    70  66  88 E6        29.87F
ALBERT LEA     MOCLDY    72  66  83 SE6       29.87R
DODGE CENTER   PTCLDY    70  68  94 SE6       29.89S
PRESTON        PTCLDY    70  70  99 SE5       29.91F
OWATONNA       PTCLDY    73  68  83 S5        29.88R
FARIBAULT      PTCLDY    75  66  73 E6        29.87S
$$

...ELSEWHERE IN MINNESOTA...


CITY           SKY/WX    TMP DP  RH WIND       PRES   REMARKS
MINNEAPOLIS    CLOUDY    75  66  73 E12       29.87R
INTNL FALLS    PTCLDY    60  57  89 SE3       29.90R
DULUTH         CLEAR     61  57  87 E7        29.94R
RED WING       PTCLDY    73  64  73 E5        29.88R
REDWOOD FALLS  CLOUDY    75  69  81 SE9       29.82R
MANKATO        MOCLDY    73  66  78 SE9       29.85R
WORTHINGTON    CLOUDY    70  12  11 E6        29.84S
FAIRMONT       CLOUDY    72  64  78 SE9       29.85S
$$

...SOUTHWEST WISCONSIN...


CITY           SKY/WX    TMP DP  RH WIND       PRES   REMARKS
LA CROSSE      CLOUDY    76  68  76 E7        29.89R
PRAIRIE DU CHI PTCLDY    70  65  85 CALM      29.90R
BOSCOBEL       PTCLDY    71  67  87 CALM      29.90S
LONE ROCK      CLEAR     75  68  78 CALM      29.91R
PLATTEVILLE    PTCLDY    70  67  89 E3        29.93S
FORT MC COY    PTCLDY    69  64  83 CALM      29.92S
CAMP DOUGLAS   MOCLDY    63  63 100 CALM      29.93R
VIROQUA        FAIR      70  70  98 CALM      29.93R
WIS DELLS      PTCLDY    71  65  80 E9        29.93R
$$

...ELSEWHERE IN WISCONSIN...


CITY           SKY/WX    TMP DP  RH WIND       PRES   REMARKS
MILWAUKEE      PTCLDY    68  64  87 E5        29.94R
MADISON        MOCLDY    75  67  76 CALM      29.91R
GREEN BAY      MOCLDY    63  62  97 CALM      29.94R
EAU CLAIRE     MOCLDY    66  65  96 NE6       29.91S
BLACK RVR FLS  FAIR      67  67  99 CALM      29.92R
MEDFORD        FOG       59  59 100 E3        29.96S VSB 1
WAUSAU         PTCLDY    64  62  93 E3        29.95R
WIS RAPIDS     PTCLDY    66  63  90 E3        29.96R
MARSHFIELD     PTCLDY    66  62  87 CALM      29.95R
RICE LAKE      PTCLDY    65  61  87 E5        29.94S
$$

...NORTHEAST IOWA...


CITY           SKY/WX    TMP DP  RH WIND       PRES   REMARKS
WATERLOO       PTCLDY    68  66  93 E5        29.87R
DUBUQUE        PTCLDY    69  66  90 E5        29.92S
DECORAH        MOCLDY    70  68  94 CALM      29.91R
MASON CITY     CLOUDY    70  68  93 SE7       29.89S
CHARLES CITY   CLOUDY    70  68  94 E6        29.89S
OELWEIN        MOCLDY    68  66  94 E5        29.91R
$$

...ELSEWHERE IN IOWA...


CITY           SKY/WX    TMP DP  RH WIND       PRES   REMARKS
DES MOINES     PTCLDY    78  73  84 S7        29.82S
IOWA CITY      CLEAR     71  69  93 SE5       29.89R
FORT DODGE     MOCLDY    70  68  94 E7        29.86R
MARSHALLTOWN   PTCLDY    69  68  96 E7        29.86R
CEDAR RAPIDS   CLEAR     69  69 100 SE3       29.88R
$$

...NORTHERN ILLINOIS...


CITY           SKY/WX    TMP DP  RH WIND       PRES   REMARKS
CHICAGO-OHARE  MOCLDY    76  67  73 W7        29.93R
DUPAGE         PTCLDY    73  68  84 CALM      29.92F
CHICAGO-MIDWAY MOCLDY    78  70  76 W7        29.93R
MOLINE         PTCLDY    70  68  93 SE7       29.91R
ROCKFORD       MOCLDY    73  68  84 S5        29.95R
STERLING       CLOUDY    70  66  88 CALM      29.94R
PEORIA         CLEAR     76  71  85 S5        29.94R
$$

NOTE: "FAIR" INDICATES FEW OR NO CLOUDS BELOW 12,000 FEET WITH NO
SIGNIFICANT WEATHER AND/OR OBSTRUCTIONS TO VISIBILITY. WIND
SPEEDS ARE IN MILES-PER-HOUR.



USA.gov is the U.S. government's official web portal to all federal, state and local government web resources and services.